Time,B instrument,Bx,By,Bz,sigma B,Ion instrument,Status,Tp_par,Tp_perp,carrot,r_sun,clat,clong,earth_he_angle,n_p,vp_x,vp_y,vp_z,vth_p_par,vth_p_perp
1980-01-15 00:00:06,1,-0.38,10.78,-0.92,0.429884,1,1,84685.1,97690.3,1690,0.85557771,3.4355793,54.530029,293.42065,6.4758,338.568,18.4729,14.0188,37.3905,40.1591
1980-01-15 00:01:27,1,-1.13333,9.9,-2.8,0.268742,1,1,70318.9,96905.7,1690,0.8555823,3.4355078,54.518066,293.42041,6.1416,337.458,16.226,10.6711,34.0717,39.9975
1980-01-15 00:02:48,1,-1.26667,9.9,-3.2,0.481894,1,1,65273.8,97781.2,1690,0.85558689,3.4354362,54.506348,293.42041,6.1206,334.918,11.6528,8.23279,32.8267,40.1777
1980-01-15 00:04:09,1,-1.42857,10.0143,-2.51429,0.336246,1,1,69794.1,92992.6,1690,0.85559613,3.4352942,54.490479,293.42017,5.94261,336.562,13.6817,6.8488,33.9443,39.1816
1980-01-15 00:05:30,1,-1.06667,9.6,-3.13333,0.278887,1,1,84390.5,89810.2,1690,0.85560071,3.4352236,54.47876,293.42017,6.30318,336.399,14.6222,6.22784,37.3254,38.5053
1980-01-15 00:06:51,1,-1.35,9.61667,-3.06667,0.325747,1,1,83932.2,94802.7,1690,0.8556053,3.4351521,54.467041,293.42017,6.97425,339.266,12.2756,2.03803,37.2239,39.5611
1980-01-15 00:08:12,1,-0.3,9.85,-2.73333,0.291071,1,1,67726.5,96122.2,1690,0.85561454,3.43501,54.455078,293.41992,5.97142,343.808,15.0417,10.9712,33.4378,39.8355
1980-01-15 00:09:33,1,-0.314286,9.64286,-3.0,0.359705,1,1,92463.6,89457.8,1690,0.85561913,3.4349394,54.443359,293.41992,6.52946,347.104,14.9396,6.82789,39.07,38.4297
1980-01-15 00:10:54,1,-0.757143,9.48571,-2.97143,0.329502,1,1,81284.6,87337.0,1690,0.85562378,3.4348679,54.431641,293.41992,5.9801,342.837,11.1367,3.67676,36.6321,37.9714
1980-01-15 00:12:15,1,-0.516667,9.35,-3.06667,0.310018,1,1,76527.6,102205.0,1690,0.85563296,3.4347258,54.415771,293.41968,6.18785,343.631,13.8862,7.23038,35.544,41.0766
1980-01-15 00:13:36,1,-2.33333,8.48333,-4.13333,0.25,1,1,71591.3,99908.0,1690,0.85563755,3.4346542,54.404053,293.41968,5.91467,329.923,9.84909,-0.889785,34.3786,40.6123
1980-01-15 00:14:57,1,-1.22,8.34,-4.64,0.293939,1,1,82907.4,98870.7,1690,0.8556422,3.4345837,54.392334,293.41968,6.2143,334.46,9.10458,1.5763,36.996,40.401
1980-01-15 00:16:18,1,-1.66667,8.63333,-4.56667,0.43589,1,1,76688.7,85619.5,1690,0.85565138,3.4344416,54.380371,293.41943,5.64807,329.062,7.2801,-1.82707,35.5815,37.5962
1980-01-15 00:17:38,1,-3.7,8.93333,-3.13333,0.520683,1,1,74399.3,99851.1,1690,0.85565603,3.43437,54.368652,293.41943,6.22703,325.116,7.21559,5.46141,35.0463,40.6008
1980-01-15 01:29:29,-1,nan,nan,nan,nan,1,3,nan,nan,1690,0.85598761,3.4292526,53.70752,293.41455,nan,319.759,5.37807,11.04,nan,nan
1980-01-15 01:30:50,1,-4.43333,9.53333,0.166667,0.270801,1,1,87829.6,76181.6,1690,0.8559922,3.4291811,53.695801,293.41455,5.52594,320.006,2.73009,10.3535,38.0784,35.4636
1980-01-15 01:32:11,1,-3.96,9.62,0.18,0.183303,1,1,82019.6,69790.1,1690,0.85600138,3.429039,53.679932,293.41431,5.39873,319.43,2.84127,12.1046,36.7974,33.9433
1980-01-15 01:33:32,1,-4.1,9.7,0.633333,0.329983,1,1,75412.2,73128.8,1690,0.85600603,3.4289675,53.668213,293.41431,5.20547,323.569,2.70584,14.297,35.2841,34.7458
1980-01-15 01:34:54,1,-3.9,9.65,0.3,0.229129,1,1,95384.9,70942.4,1690,0.85601062,3.4288969,53.656494,293.41431,5.6866,324.724,2.36813,12.5558,39.6824,34.2224
1980-01-15 01:36:15,1,-3.96,9.62,0.18,0.183303,1,1,79060.0,78481.4,1690,0.85601979,3.4287548,53.644531,293.41406,5.50677,321.015,0.963493,12.6709,36.1274,35.9949
1980-01-15 01:37:36,1,-3.96,9.52,-0.2,0.236643,1,1,73070.4,77745.0,1690,0.85602444,3.4286833,53.632813,293.41406,5.77981,320.405,2.05846,8.40291,34.7319,35.8257
1980-01-15 01:38:57,1,-4.2,9.21667,-0.0666667,0.252212,1,1,82510.3,71415.0,1690,0.85602903,3.4286127,53.621094,293.41406,5.68656,319.961,1.6395,10.9923,36.9073,34.3362
1980-01-15 01:40:18,1,-3.14,9.74,0.16,0.327414,1,1,74954.6,70934.1,1690,0.85603821,3.4284706,53.605225,293.41382,5.57829,317.578,2.81125,10.2796,35.1769,34.2204
1980-01-15 01:41:39,1,-4.23333,9.28333,-0.0833333,0.261406,1,1,73054.5,86553.1,1690,0.8560428,3.4283991,53.593506,293.41382,5.78414,319.134,-0.549758,6.14192,34.7281,37.8007
1980-01-15 01:43:00,1,-4.38333,9.15,-0.0333333,0.263523,1,1,77931.0,72140.8,1690,0.85605204,3.428257,53.581543,293.41357,5.81723,319.79,1.67761,6.32064,35.8685,34.5103
1980-01-15 01:44:21,1,-4.2,9.11667,-0.983333,0.310018,1,1,73791.3,75424.3,1690,0.85605663,3.4281864,53.569824,293.41357,5.86392,318.5,-2.11297,5.94676,34.9028,35.2869
1980-01-15 01:45:42,1,-4.6,8.96667,-0.283333,0.462181,1,1,93667.0,69907.9,1690,0.85606122,3.4281149,53.558105,293.41357,5.88193,318.035,3.11125,12.3218,39.3234,33.972
1980-01-15 01:47:03,1,-4.86,9.22,-0.1,0.219089,1,1,85865.2,68954.2,1690,0.85607046,3.4279728,53.546143,293.41333,5.62629,316.333,0.132342,10.6785,37.6501,33.7395
1980-01-15 01:48:24,1,-5.6,9.1,0.46,0.338231,1,1,85786.8,72897.9,1690,0.85607505,3.4279022,53.530518,293.41333,5.99329,318.417,-0.837697,7.74904,37.6329,34.6909
1980-01-15 01:49:45,1,-4.94,9.18,-0.02,0.271293,1,1,75509.3,67181.0,1690,0.85607964,3.4278307,53.518799,293.41333,5.81718,314.546,-3.04943,7.27724,35.3068,33.3028
1980-01-15 01:51:06,1,-5.06667,9.1,-0.1,0.329983,1,1,92770.8,70312.3,1690,0.85608888,3.4276886,53.506836,293.41309,5.94352,318.267,0.0254458,4.97633,39.1348,34.0701
1980-01-15 01:52:27,1,-4.5,9.58333,0.233333,0.283333,1,1,91042.7,76861.2,1690,0.85609347,3.427618,53.495117,293.41309,6.47905,319.564,0.610042,7.02686,38.7686,35.6214
1980-01-15 01:53:48,1,-4.78333,9.53333,-0.266667,0.553022,1,1,113002.0,67760.8,1690,0.85609806,3.4275465,53.483398,293.41309,6.41957,319.048,0.555035,9.13445,43.1918,33.4462
1980-01-15 01:55:09,1,-5.06667,8.65,-1.26667,0.23863,1,1,58002.0,70922.6,1690,0.85610723,3.4274044,53.471436,293.41284,5.36371,317.434,-1.1501,5.92729,30.9442,34.2177
1980-01-15 01:56:30,1,-4.74,9.36,-0.26,0.350999,1,1,69796.2,76022.2,1690,0.85611188,3.4273338,53.455811,293.41284,5.63324,317.324,0.35839,5.69915,33.9448,35.4265
1980-01-15 01:57:51,1,-4.94,9.18,-0.02,0.271293,1,1,82386.2,68528.2,1690,0.85611647,3.4272623,53.443848,293.4126,6.09698,319.054,-1.63319,7.26105,36.8795,33.6351
1980-01-15 01:59:12,1,-5.05,9.2,-0.566667,0.533594,1,1,84781.0,64814.8,1690,0.85612565,3.4271202,53.432129,293.4126,5.48636,318.07,-2.63927,5.39838,37.4117,32.7111
1980-01-15 02:00:33,1,-5.33333,8.53333,-1.33333,0.447214,1,1,57680.0,66264.5,1690,0.8561303,3.4270496,53.42041,293.4126,4.87263,313.326,-5.34822,4.5518,30.8582,33.0749
1980-01-15 02:01:54,1,-5.08333,8.55,-1.53333,0.257121,1,1,70754.7,71124.9,1690,0.85613489,3.4269781,53.408447,293.41235,5.48102,317.833,-0.580555,9.00313,34.1771,34.2664
1980-01-15 02:03:15,1,-5.33333,8.6,-1.48333,0.245515,1,1,82294.0,76843.6,1690,0.85614407,3.426836,53.396729,293.41235,5.45306,317.071,1.34701,8.4025,36.8589,35.6174
1980-01-15 02:04:36,1,-5.08333,8.63333,-1.88333,0.437798,1,1,76737.8,76214.7,1690,0.85614866,3.4267654,53.384766,293.41211,5.49189,317.535,0.973304,7.50805,35.5928,35.4713
1980-01-15 02:05:57,1,-4.18,8.94,-1.76,0.287054,1,1,76542.2,65352.1,1690,0.85615325,3.4266939,53.369141,293.41211,5.28541,318.012,-0.247523,3.87069,35.5474,32.8464
1980-01-15 02:07:18,1,-4.16,9.04,-1.52,0.313688,1,1,69177.6,77417.7,1690,0.85616243,3.4265518,53.357422,293.41211,5.23198,314.309,-1.44802,5.60996,33.7941,35.7502
1980-01-15 02:08:39,1,-3.25,9.51667,-1.68333,0.297676,1,1,62706.7,68899.3,1690,0.85616708,3.4264812,53.345459,293.41187,4.99188,315.808,-2.5481,2.60485,32.1747,33.726
1980-01-15 02:10:00,1,-3.33333,9.58333,-1.56667,0.262996,1,1,64263.7,59504.9,1690,0.85617626,3.4263391,53.33374,293.41187,4.98242,316.429,-1.9846,1.47456,32.5717,31.3425
1980-01-15 02:11:21,1,-2.0,10.0,-1.2,0.0,1,1,68874.2,62458.3,1690,0.85618085,3.4262676,53.322021,293.41187,5.02073,319.721,1.10832,1.00631,33.7199,32.1109
1980-01-15 02:12:42,1,-2.68,9.38,-1.4,0.19799,1,1,74399.0,63195.2,1690,0.85618544,3.4261971,53.310059,293.41162,5.08869,320.012,-1.24755,0.339936,35.0462,32.2998
1980-01-15 02:14:03,1,-2.96667,9.6,-1.53333,0.34801,1,1,71665.8,68820.8,1690,0.85619462,3.426055,53.294434,293.41162,5.02761,321.592,-2.35448,3.10669,34.3965,33.7068
1980-01-15 02:15:24,1,-4.45,7.71667,-3.26667,0.32059,1,1,72979.8,73847.9,1690,0.85619926,3.4259834,53.282715,293.41162,5.33406,319.762,1.22249,3.87837,34.7104,34.9162
1980-01-15 02:16:45,1,-3.31667,9.7,-1.8,0.348409,1,1,69128.3,66234.3,1690,0.85620385,3.4259129,53.270752,293.41138,5.47984,319.319,-1.72846,-6.66994,33.782,33.0673
1980-01-15 02:18:06,1,-2.82,10.14,-0.1,0.252982,1,1,59126.3,69468.3,1690,0.85621303,3.4257708,53.259033,293.41138,5.0693,322.232,4.9099,11.2264,31.2427,33.865
1980-01-15 02:19:27,1,-1.96,10.18,-0.42,0.231517,1,1,51749.5,65535.4,1690,0.85621762,3.4256992,53.24707,293.41113,5.17271,323.434,-1.45351,0.0572839,29.2288,32.8924
1980-01-15 02:20:48,1,-2.4,9.9,-0.4,0.0,1,1,53465.7,65676.6,1690,0.85622221,3.4256287,53.235352,293.41113,5.30173,322.516,0.486484,-4.13975,29.7095,32.9278
1980-01-15 02:22:09,1,-2.9,9.65,-1.0,0.206155,1,1,59996.8,65545.7,1690,0.85623139,3.4254866,53.219727,293.41113,5.45506,317.824,2.55984,1.36392,31.4718,32.895
1980-01-15 02:23:30,1,-3.1,9.83333,-1.0,0.44597,1,1,56179.4,71810.9,1690,0.85623604,3.425415,53.207764,293.41089,5.49189,317.294,1.76472,2.84031,30.4541,34.4313
1980-01-15 02:24:51,1,-3.1,10.0,0.5,0.0,1,1,62206.1,62999.6,1690,0.85624063,3.4253435,53.196045,293.41089,5.18631,320.302,-1.1926,-2.79083,32.046,32.2498
1980-01-15 02:26:12,1,-3.13333,9.78333,0.0833333,0.273861,1,1,53041.5,59615.4,1690,0.85624981,3.4252024,53.184326,293.41089,4.8793,319.15,-0.0354148,2.39765,29.5914,31.3716
1980-01-15 02:27:33,1,-2.94,9.38,-1.32,0.40694,1,1,62150.5,69133.7,1690,0.8562544,3.4251308,53.172363,293.41064,5.12714,318.708,4.52459,8.64858,32.0317,33.7834
1980-01-15 02:28:54,1,-1.64,8.72,-3.32,1.0284,1,1,49944.2,61679.1,1690,0.85625899,3.4250593,53.160645,293.41064,5.09377,316.922,9.01841,8.86091,28.7145,31.91
1980-01-15 02:30:15,1,-2.8,9.58333,-1.73333,0.258736,1,1,42144.1,61683.3,1690,0.85626823,3.4249182,53.148926,293.41064,4.96792,317.818,2.80464,5.17338,26.3771,31.9111
1980-01-15 02:31:36,1,-2.5,9.5,-1.8,0.331662,1,1,52934.4,56678.6,1690,0.85627282,3.4248466,53.133057,293.4104,5.13096,318.629,3.83273,4.58499,29.5615,30.5891
1980-01-15 02:32:57,1,-2.48,9.44,-2.6,0.228035,1,1,49122.5,53090.6,1690,0.85627741,3.4247751,53.121338,293.4104,4.98031,319.528,2.62006,1.75011,28.4773,29.6051
1980-01-15 02:34:18,1,-2.16,9.12,-2.8,0.309839,1,1,51229.1,58449.9,1690,0.85628659,3.424634,53.109375,293.41016,5.19929,319.996,6.15482,2.49486,29.0815,31.0635
1980-01-15 02:35:39,1,-2.4,9.4,-2.6,0.0,1,1,40220.7,55921.7,1690,0.85629117,3.4245625,53.097656,293.41016,4.75702,319.856,2.43676,3.44668,25.7681,30.3842
1980-01-15 02:37:00,1,-2.48,9.44,-2.52,0.278568,1,1,46597.4,62764.6,1690,0.85630035,3.4244204,53.085938,293.41016,5.18502,319.398,5.9141,3.67651,27.7357,32.1896
1980-01-15 02:38:21,1,-2.8,9.73333,-2.08333,0.316667,1,1,54926.8,66214.4,1690,0.856305,3.4243498,53.073975,293.40991,5.3749,320.958,5.14383,0.869583,30.1127,33.0624
1980-01-15 02:39:42,1,-3.22,9.44,-1.8,0.178885,1,1,52999.6,58937.4,1690,0.85630959,3.4242783,53.05835,293.40991,5.35519,316.585,5.58561,3.83679,29.5797,31.1927
1980-01-15 02:41:03,1,-1.92,10.04,-1.04,0.366606,1,1,52345.0,66621.4,1690,0.85631877,3.4241362,53.046631,293.40991,5.66984,321.489,7.88845,12.4838,29.3965,33.1638
1980-01-15 02:42:24,1,-2.6,9.58,-1.56,0.334664,1,1,50853.6,59387.8,1690,0.85632336,3.4240656,53.034668,293.40967,4.87034,315.616,2.91885,4.11685,28.9747,31.3117
1980-01-15 02:43:45,1,-2.98,9.56,-1.72,0.24,1,1,50914.1,64145.3,1690,0.85632795,3.4239941,53.022949,293.40967,5.08295,310.685,1.22814,1.71386,28.9919,32.5417
1980-01-15 02:45:06,1,-1.92,10.08,-1.52,0.297993,1,1,50095.8,64611.1,1690,0.85633719,3.423852,53.01123,293.40967,5.04738,313.968,2.21062,1.77841,28.758,32.6596
1980-01-15 02:46:27,1,-1.56667,9.71667,-1.33333,0.65,1,1,45425.1,62116.3,1690,0.85634178,3.4237814,52.999268,293.40942,5.26919,316.755,3.7087,7.98756,27.3846,32.0229
1980-01-15 02:47:48,1,-1.56,10.06,-1.6,0.269815,1,1,50351.5,59179.0,1690,0.85634637,3.4237099,52.983643,293.40942,4.84036,318.336,1.57792,5.48695,28.8313,31.2566
1980-01-15 02:49:09,1,-1.38,9.86,-1.28,0.24,1,1,62965.5,59120.0,1690,0.85635555,3.4235678,52.97168,293.40918,4.77077,318.127,0.766292,7.83719,32.241,31.241
1980-01-15 02:50:30,1,-1.2,9.95,-1.4,0.229129,1,1,51037.2,56326.2,1690,0.85636014,3.4234972,52.959961,293.40918,5.2774,319.778,1.91976,6.09684,29.0269,30.4939
1980-01-15 02:51:51,1,-1.7,10.26,-0.82,0.586515,1,1,57307.5,60005.7,1690,0.85636473,3.4234257,52.948242,293.40918,4.90168,318.386,3.98592,7.61495,30.7584,31.4742
1980-01-15 02:53:12,1,-1.32,10.48,-0.42,0.169706,1,1,53475.3,54354.8,1690,0.85637397,3.4232836,52.936279,293.40894,4.92612,321.285,3.28185,7.36916,29.7122,29.9555
1980-01-15 02:54:33,1,-2.08,10.38,-0.32,0.291204,1,1,50302.9,50741.0,1690,0.85637856,3.423213,52.924561,293.40894,4.53076,316.241,3.75991,10.3358,28.8174,28.9426
1980-01-15 02:55:54,1,-2.12,10.28,-0.38,0.229783,1,1,48577.6,52362.0,1690,0.85638314,3.4231415,52.912842,293.40894,5.1163,315.169,1.74437,9.30485,28.3189,29.4013
1980-01-15 02:57:15,1,-2.58333,10.25,0.566667,0.427525,1,1,52362.4,66213.6,1690,0.85639232,3.4229994,52.896973,293.40869,5.29966,321.793,7.15847,-0.106341,29.4014,33.0622
1980-01-15 02:58:36,1,-2.88333,10.5333,1.46667,0.434933,1,1,58550.0,53490.0,1690,0.85639691,3.4229288,52.885254,293.40869,5.33443,314.936,3.6022,9.8931,31.0901,29.7163
1980-01-15 02:59:57,1,-2.68,10.32,1.18,0.277128,1,1,54172.9,70477.3,1690,0.8564015,3.4228573,52.873535,293.40869,5.67358,315.413,1.22718,3.33161,29.9054,34.1101
1980-01-15 03:01:18,1,-3.16,10.44,0.98,0.224499,1,1,39936.2,55116.2,1690,0.85641074,3.4227152,52.861572,293.40845,4.9518,313.332,1.42249,2.2708,25.6768,30.1646
1980-01-15 03:02:39,1,-3.06,10.4,0.98,0.303315,1,1,47033.3,52950.4,1690,0.85641533,3.4226446,52.849854,293.40845,5.09535,315.576,2.87369,6.38183,27.8651,29.566
1980-01-15 03:04:00,1,-4.34,9.56,0.14,0.367696,1,1,57445.3,59669.4,1690,0.85642451,3.4225025,52.837891,293.4082,5.13044,314.316,2.88619,6.31018,30.7954,31.3858
1980-01-15 03:05:21,1,-3.92,9.82,0.02,0.425206,1,1,58251.4,69506.8,1690,0.8564291,3.422431,52.822266,293.4082,5.29964,314.73,2.68971,4.95213,31.0107,33.8744
1980-01-15 03:06:42,1,-3.44,9.84,0.1,0.304631,1,1,53095.0,62304.4,1690,0.85643369,3.4223604,52.810547,293.4082,5.02392,313.943,3.09645,3.33567,29.6063,32.0713
1980-01-15 03:08:03,1,-3.18333,10.0333,0.233333,0.287228,1,1,59449.9,62532.2,1690,0.85644287,3.4222183,52.798584,293.40796,5.3785,314.626,3.13292,1.9954,31.328,32.1299
1980-01-15 03:09:24,1,-3.18333,10.0333,0.1,0.252212,1,1,44287.4,56270.7,1690,0.85644746,3.4221468,52.786865,293.40796,4.92719,315.762,0.107263,1.93603,27.0395,30.4789
1980-01-15 03:10:45,1,-3.3,9.9,0.1,4.44306e-16,1,1,50514.2,56532.8,1690,0.85645205,3.4220762,52.775146,293.40796,4.96837,314.216,0.172872,3.61642,28.8778,30.5498
1980-01-15 03:12:06,1,-3.66,10.14,0.5,0.43909,1,1,49978.3,55763.1,1690,0.85646123,3.4219341,52.763184,293.40771,5.0794,315.618,-0.185235,2.10423,28.7243,30.3411
1980-01-15 03:13:27,1,-3.34,10.06,-0.3,0.20199,1,1,44341.7,70904.7,1690,0.85646582,3.4218626,52.747559,293.40771,5.23456,315.335,0.680137,1.29592,27.056,34.2133
1980-01-15 03:14:48,1,-3.28,10.0,0.18,0.25923,1,1,46726.7,61364.1,1690,0.85647041,3.421792,52.73584,293.40771,5.12811,311.515,-0.0876259,4.03708,27.7741,31.8284
1980-01-15 03:16:09,1,-3.46,9.92,-0.3,0.352136,1,1,54039.2,66643.9,1690,0.85647959,3.4216499,52.723877,293.40747,5.21026,314.923,0.833659,-1.39297,29.8684,33.1694
1980-01-15 03:17:30,1,-3.44,9.84,-0.3,0.304631,1,1,50922.2,54513.4,1690,0.85648417,3.4215784,52.712158,293.40747,5.18484,313.998,1.38268,5.80629,28.9942,29.9992
1980-01-15 03:18:51,1,-3.36,9.66,-1.22,0.962497,1,1,45087.7,59826.5,1690,0.85648876,3.4215078,52.700195,293.40723,5.12718,317.919,-0.644082,-4.45258,27.2827,31.4271
1980-01-15 03:20:12,1,-3.18,9.22,-2.04,0.263818,1,1,53967.1,60989.4,1690,0.85649794,3.4213657,52.688477,293.40723,5.09286,312.737,2.81227,2.68806,29.8485,31.7311
1980-01-15 03:21:33,1,-3.14,9.28,-1.32,0.285657,1,1,57063.9,63315.3,1690,0.85650253,3.4212942,52.676758,293.40723,5.63142,315.6,2.78546,5.1371,30.6929,32.3305
1980-01-15 03:22:54,1,-3.51667,9.05,-1.8,0.436527,1,1,53016.1,64410.7,1690,0.85650712,3.4212236,52.660889,293.40698,5.65987,315.767,1.93108,3.42631,29.5843,32.609
1980-01-15 03:24:15,1,-2.78,10.24,-0.06,0.293939,1,1,43835.7,62097.8,1690,0.8565163,3.4210815,52.64917,293.40698,4.95779,317.228,7.70688,1.59463,26.9012,32.0181
1980-01-15 03:25:36,1,-2.85,10.475,0.35,0.286138,1,1,38416.7,57813.8,1690,0.85652089,3.42101,52.637207,293.40674,5.12889,309.138,4.62167,-4.62145,25.1836,30.894
1980-01-15 03:26:57,1,-2.74,10.44,0.3,0.284253,1,1,53730.6,54515.2,1690,0.85652548,3.4209394,52.625488,293.40674,4.70005,308.248,3.70361,-1.21144,29.783,29.9997
1980-01-15 03:28:18,1,-3.4,10.3,-0.14,0.195959,1,1,44474.0,63307.5,1690,0.85653466,3.4207973,52.61377,293.40674,4.9436,300.07,3.9818,-6.00313,27.0964,32.3285
1980-01-15 03:29:39,1,-4.1,10.02,-0.26,0.409878,1,1,40358.5,55301.5,1690,0.85653931,3.4207258,52.601807,293.40649,4.30545,301.116,3.33092,-4.1078,25.8122,30.2153
1980-01-15 03:31:00,1,-3.53333,10.2667,0.366667,0.408248,1,1,45971.9,62620.4,1690,0.85654849,3.4205847,52.586182,293.40649,4.97976,309.609,5.29407,5.3471,27.5489,32.1526
1980-01-15 03:32:21,1,-4.08,10.12,0.9,0.19799,1,1,43871.8,69562.8,1690,0.85655308,3.4205132,52.574219,293.40625,5.74095,307.051,4.38035,4.95292,26.9123,33.888
1980-01-15 03:33:42,1,-3.2,10.4,0.58,0.16,1,1,43317.2,56912.2,1690,0.85655767,3.4204426,52.5625,293.40625,4.66476,306.111,4.258,2.3809,26.7416,30.6521
1980-01-15 03:35:03,1,-3.28,10.48,1.06,0.263818,1,1,46063.5,62305.7,1690,0.85656685,3.4203005,52.550781,293.40625,4.86105,306.85,5.02165,5.39194,27.5763,32.0717
1980-01-15 03:36:24,1,-3.2,10.4,0.9,0.0,1,1,37706.2,54023.5,1690,0.85657144,3.420229,52.538818,293.40601,4.60279,308.747,4.82275,-0.215231,24.9496,29.8641
1980-01-15 03:37:45,1,-2.9,10.6,1.94,0.195959,1,1,43877.2,59722.6,1690,0.85657603,3.4201584,52.5271,293.40601,5.09529,311.356,7.99169,8.32415,26.914,31.3998
1980-01-15 03:39:06,1,-3.06,10.52,2.42,0.271293,1,1,46739.1,56330.7,1690,0.8565852,3.4200163,52.511475,293.40601,4.87043,312.607,7.11713,12.5402,27.7778,30.4951
1980-01-15 03:40:27,1,-2.8,10.5,2.3,0.355903,1,1,42039.2,67022.8,1690,0.85658979,3.4199448,52.499512,293.40576,5.04835,310.965,7.73418,11.9275,26.3442,33.2636
1980-01-15 03:41:48,1,-2.9,10.6,1.7,0.0,1,1,44882.1,59175.8,1690,0.85659438,3.4198742,52.487793,293.40576,4.83507,311.166,7.66601,7.85424,27.2204,31.2557
1980-01-15 03:43:09,1,-2.5,10.8,1.63333,0.188562,1,1,47826.7,62307.8,1690,0.85660356,3.4197321,52.47583,293.40552,4.95249,311.974,8.35574,9.03778,28.0992,32.0722
1980-01-15 03:44:30,1,-2.58,10.76,1.62,0.299333,1,1,47098.4,62116.6,1690,0.85660815,3.4196606,52.464111,293.40552,5.06479,310.943,7.06645,8.40996,27.8844,32.023
1980-01-15 03:45:51,1,-2.9,10.6,1.38,0.16,1,1,37221.2,57449.8,1690,0.85661274,3.41959,52.452393,293.40552,4.69844,310.844,5.43185,6.95506,24.7887,30.7966
1980-01-15 03:47:12,1,-2.9,10.6,1.6,0.173205,1,1,43730.5,59087.0,1690,0.85662192,3.4194479,52.44043,293.40527,4.88916,312.59,8.49223,8.9114,26.8689,31.2323
1980-01-15 03:48:33,1,-2.9,10.6,1.43333,0.188562,1,1,35005.6,53980.7,1690,0.85662651,3.4193764,52.424805,293.40527,4.81515,310.864,8.00887,10.321,24.0396,29.8523
1980-01-15 03:49:54,1,-3.1,10.48,1.06,0.275681,1,1,37547.7,53771.4,1690,0.8566311,3.4193058,52.413086,293.40527,4.47782,311.458,8.33617,5.47759,24.8972,29.7943
1980-01-15 03:51:15,1,-2.96,10.56,0.9,0.144222,1,1,35461.6,55677.4,1690,0.85664028,3.4191637,52.401123,293.40503,4.49517,309.364,9.02456,4.87829,24.1956,30.3178
1980-01-15 03:52:36,1,-3.12,10.56,0.9,0.244949,1,1,31874.8,52436.1,1690,0.85664487,3.4190922,52.389404,293.40503,4.30306,307.892,7.18276,7.22568,22.9394,29.4221
1980-01-15 03:53:57,1,-2.9,10.6,1.14,0.195959,1,1,41214.0,68189.8,1690,0.85664946,3.4190216,52.377686,293.40503,5.23183,308.984,7.46999,6.00403,26.0844,33.5519
1980-01-15 03:55:18,1,-2.9,10.6,1.14,0.195959,1,1,33442.8,60723.7,1690,0.85665864,3.4188795,52.365723,293.40479,4.87118,309.008,7.82335,6.47996,23.4968,31.6619
1980-01-15 03:56:39,1,-3.06,10.6,1.14,0.311127,1,1,37085.9,68441.9,1690,0.85666323,3.418808,52.350098,293.40479,4.95866,308.973,8.08855,6.26717,24.7436,33.6139
1980-01-15 03:58:00,1,-2.7,10.65,0.933333,0.338707,1,1,42012.0,59692.3,1690,0.85667241,3.4186668,52.338135,293.40454,4.67644,310.229,9.89616,4.31482,26.3357,31.3919
1980-01-15 03:59:21,1,-3.06,10.52,1.38,0.271293,1,1,38850.4,55567.0,1690,0.856677,3.4185953,52.326416,293.40454,4.43413,311.222,9.61191,10.4707,25.3254,30.2877
1980-01-15 04:00:42,1,-2.54,10.5,-0.66,0.415692,1,1,44114.0,41997.1,1690,0.85668164,3.4185247,52.314697,293.40454,3.78846,321.594,3.77308,-13.7504,26.9865,26.331
1980-01-15 04:02:03,1,-2.9,10.6,1.03333,0.188562,1,1,42002.3,62488.1,1690,0.85669076,3.4183826,52.302734,293.4043,4.87652,309.723,7.68961,2.53275,26.3326,32.1186
1980-01-15 04:03:24,1,-2.9,10.6,0.74,0.195959,1,1,34943.4,60942.9,1690,0.85669535,3.4183111,52.291016,293.4043,4.803,309.837,7.83983,2.93191,24.0182,31.719
1980-01-15 04:04:45,1,-2.8,10.45,0.0666667,0.343592,1,1,42930.7,62175.6,1690,0.85669994,3.4182405,52.275146,293.40405,5.06219,311.919,8.37049,2.41476,26.6221,32.0382
1980-01-15 04:06:06,1,-2.94,10.54,0.02,0.224499,1,1,39260.8,60328.1,1690,0.85670912,3.4180984,52.263428,293.40405,4.67851,312.182,9.97601,1.06988,25.4588,31.5586
1980-01-15 04:07:27,1,-2.74,10.52,0.18,0.278568,1,1,39154.1,61537.5,1690,0.85671371,3.4180269,52.251709,293.40405,4.97786,310.803,9.72188,5.03761,25.4242,31.8733
1980-01-15 04:08:48,1,-2.8,10.525,0.45,0.233184,1,1,40819.7,63132.7,1690,0.8567183,3.4179564,52.239746,293.40381,4.87012,309.096,8.83713,5.46864,25.9593,32.2838
1980-01-15 04:10:09,1,-2.7,10.6,-0.02,0.16,1,1,41625.8,64853.0,1690,0.85672748,3.4178143,52.228027,293.40381,4.86979,310.75,8.879,5.03781,26.2143,32.7207
1980-01-15 04:11:30,1,-2.62,10.48,-0.26,0.263818,1,1,44491.7,54457.0,1690,0.85673207,3.4177427,52.216309,293.40381,4.84717,313.053,9.07837,2.55589,27.1018,29.9837
1980-01-15 04:12:51,1,-2.54,10.56,0.82,0.28,1,1,42273.6,63490.7,1690,0.85673666,3.4176722,52.200439,293.40356,5.00273,311.389,9.44722,9.08089,26.4175,32.3752
1980-01-15 04:14:12,1,-2.82,10.62,1.02,0.291204,1,1,44045.6,61352.7,1690,0.85674584,3.4175301,52.188721,293.40356,4.9781,307.693,8.42066,6.95108,26.9656,31.8255
1980-01-15 04:15:33,1,-3.06,10.42,1.14,0.300666,1,1,42918.2,54774.9,1690,0.85675043,3.4174595,52.177002,293.40356,4.96002,310.259,8.21466,9.96384,26.6182,30.0711
1980-01-15 04:16:54,1,-2.26667,10.3333,0.616667,0.398957,1,1,41377.6,56859.2,1690,0.85675502,3.417388,52.165039,293.40332,4.77707,308.913,9.0397,9.95584,26.1361,30.6379
1980-01-15 04:18:15,1,-2.54,10.28,0.1,0.268328,1,1,45161.1,54276.6,1690,0.8567642,3.4172459,52.15332,293.40332,4.8503,313.197,8.35098,6.34037,27.3049,29.934
1980-01-15 04:19:36,1,-2.86,10.32,1.14,0.344093,1,1,33652.8,55208.1,1690,0.85676879,3.4171753,52.141357,293.40308,4.81898,311.776,7.56331,7.07193,23.5705,30.1897
1980-01-15 05:55:16,-1,nan,nan,nan,nan,1,3,nan,nan,1690,0.85720873,3.4103594,51.26001,293.39673,nan,339.156,-12.282,-31.3013,nan,nan
1980-01-15 06:06:04,-1,nan,nan,nan,nan,1,3,nan,nan,1690,0.85725909,3.4095783,51.161621,293.396,nan,310.98,5.3409,-2.11749,nan,nan
1980-01-15 06:16:52,-1,nan,nan,nan,nan,1,3,nan,nan,1690,0.85730487,3.4088688,51.059326,293.39526,nan,310.216,8.44305,2.32171,nan,nan
1980-01-15 06:26:28,-1,nan,nan,nan,nan,1,3,nan,nan,1690,0.85735065,3.4081593,50.972656,293.39453,nan,305.795,5.97595,8.09896,nan,nan
1980-01-15 06:37:16,-1,nan,nan,nan,nan,1,3,nan,nan,1690,0.85740101,3.4073782,50.874268,293.3938,nan,309.986,9.90162,0.669635,nan,nan
1980-01-15 06:48:04,-1,nan,nan,nan,nan,1,3,nan,nan,1690,0.85745132,3.4065981,50.771973,293.39307,nan,309.539,8.40698,0.338651,nan,nan
1980-01-15 06:58:52,-1,nan,nan,nan,nan,1,3,nan,nan,1690,0.8574971,3.4058876,50.673584,293.39233,nan,299.588,11.7135,-2.03235,nan,nan